GW1920 Weather Reports


Display with metric or nautical units.
time (UTC)temp
F
wind
direction
speed
MPH
gust
MPH
rain 1hr
in
rain 24hr
in
rain mn
in
humidity
%
barometer
mb
20260905081543 51 21 0.0 0.0 0.00 0.00 0.00 99 1011.1
20260905081038 51 20 0.0 0.0 0.00 0.00 0.00 99 1010.8
20260905080532 51 18 0.0 0.0 0.00 0.00 0.00 99 1011.1
20260905080028 51 11 0.0 0.0 0.00 0.00 0.00 99 1010.9
20260905075521 51 18 0.0 0.0 0.00 0.00 0.00 99 1011.1
20260905075020 51 28 0.0 0.0 0.00 0.00 0.00 99 1011.0
20260905074510 51 13 0.0 0.0 0.00 0.00 0.00 99 1010.9
20260905074005 51 13 0.0 0.0 0.00 0.00 0.00 99 1010.7
20260905073500 52 2 0.0 0.0 0.00 0.00 0.00 99 1011.0
20260905072955 52 28 0.0 0.0 0.00 0.00 0.00 99 1010.9
20260905072450 52 7 0.0 0.0 0.00 0.00 0.00 99 1011.0
20260905071945 52 38 0.0 0.0 0.00 0.00 0.00 99 1011.0
20260905071443 52 9 0.0 0.0 0.00 0.00 0.00 99 1010.6
20260905070942 52 9 0.0 0.0 0.00 0.00 0.00 99 1010.8
20260905070438 52 18 0.0 0.0 0.00 0.00 0.00 99 1010.8
20260905065937 52 11 0.0 0.0 0.00 0.00 0.00 99 1011.0
20260905065436 52 29 0.0 0.0 0.00 0.00 0.00 99 1011.0
20260905064931 52 31 0.0 0.0 0.00 0.00 0.00 99 1010.7
20260905064426 52 32 0.0 0.0 0.00 0.00 0.00 99 1010.7
20260905063921 52 25 0.0 0.0 0.00 0.00 0.00 99 1010.9
20260905063416 52 24 0.0 0.0 0.00 0.00 0.00 99 1010.9
20260905062912 53 26 0.0 0.0 0.00 0.00 0.00 99 1010.9
20260905062406 53 11 0.0 0.0 0.00 0.00 0.00 99 1010.8
20260905061901 53 29 0.0 0.0 0.00 0.00 0.00 99 1010.6
20260905061401 53 27 0.0 0.0 0.00 0.00 0.00 98 1010.6
20260905060855 53 12 0.0 0.0 0.00 0.00 0.00 98 1010.6
20260905060352 53 11 0.0 0.0 0.00 0.00 0.00 98 1010.7
20260905055851 53 29 0.0 1.0 0.00 0.00 0.00 98 1010.8
20260905055346 53 26 0.0 1.0 0.00 0.00 0.00 98 1010.9
20260905054845 54 37 0.0 0.0 0.00 0.00 0.00 98 1010.9
20260905054342 54 28 0.0 1.0 0.00 0.00 0.00 98 1011.0
20260905053841 54 10 0.0 0.0 0.00 0.00 0.00 98 1010.9
20260905053341 54 16 0.0 0.0 0.00 0.00 0.00 98 1010.9
20260905052837 54 18 0.0 0.0 0.00 0.00 0.00 98 1011.0
20260905052331 54 48 0.0 0.0 0.00 0.00 0.00 98 1011.0
20260905051831 54 18 0.0 0.0 0.00 0.00 0.00 99 1011.0
20260905051327 54 37 0.0 0.0 0.00 0.00 0.00 99 1011.0
20260905050823 54 20 0.0 0.0 0.00 0.00 0.00 99 1010.8
20260905050320 54 353 0.0 1.0 0.00 0.00 0.00 99 1011.1
20260905045815 54 19 0.0 0.0 0.00 0.00 0.00 99 1010.9
20260905045309 54 18 0.0 0.0 0.00 0.00 0.00 99 1011.2
20260905044805 54 18 0.0 0.0 0.00 0.00 0.00 99 1011.0
20260905044300 55 17 0.0 0.0 0.00 0.00 0.00 99 1011.1
20260905043759 55 12 0.0 0.0 0.00 0.00 0.00 99 1011.1
20260905043254 55 12 0.0 0.0 0.00 0.00 0.00 99 1011.0
20260905042753 55 5 0.0 0.0 0.00 0.00 0.00 99 1011.0
20260905042252 55 1 0.0 0.0 0.00 0.00 0.00 99 1010.8
20260905041748 55 1 0.0 0.0 0.00 0.00 0.00 99 1010.7
20260905041244 55 1 0.0 0.0 0.00 0.00 0.00 99 1010.7
20260905040739 55 1 0.0 0.0 0.00 0.00 0.00 99 1010.5
20260905040237 55 1 0.0 0.0 0.00 0.00 0.00 99 1010.7
20260905035732 56 1 0.0 0.0 0.00 0.00 0.00 99 1010.8
20260905035228 56 1 0.0 0.0 0.00 0.00 0.00 99 1010.7
20260905034725 56 1 0.0 0.0 0.00 0.00 0.00 98 1010.6
20260905034225 56 1 0.0 0.0 0.00 0.00 0.00 98 1010.7
20260905033724 56 1 0.0 0.0 0.00 0.00 0.00 98 1010.6
20260905033219 57 1 0.0 0.0 0.00 0.00 0.00 98 1010.5
20260905032719 57 1 0.0 0.0 0.00 0.00 0.00 98 1010.7
20260905032214 57 1 0.0 0.0 0.00 0.00 0.00 97 1010.5
20260905031709 57 1 0.0 0.0 0.00 0.00 0.00 97 1010.5
20260905031205 58 1 0.0 0.0 0.00 0.00 0.00 97 1010.6
20260905030700 58 1 0.0 0.0 0.00 0.00 0.00 96 1010.3
20260905030155 58 1 0.0 0.0 0.00 0.00 0.00 96 1010.3
20260905025650 58 1 0.0 0.0 0.00 0.00 0.00 96 1010.5
20260905025146 59 1 0.0 0.0 0.00 0.00 0.00 95 1010.5
20260905024641 59 1 0.0 0.0 0.00 0.00 0.00 95 1010.4
20260905024136 59 1 0.0 0.0 0.00 0.00 0.00 94 1010.4
20260905023632 59 337 0.0 0.0 0.00 0.00 0.00 93 1010.2
20260905023131 59 337 0.0 0.0 0.00 0.00 0.00 93 1010.3
20260905022630 60 337 0.0 0.0 0.00 0.00 0.00 93 1010.0
20260905022125 60 337 0.0 0.0 0.00 0.00 0.00 92 1010.2
20260905021620 60 337 0.0 0.0 0.00 0.00 0.00 92 1010.2
20260905021116 60 337 0.0 0.0 0.00 0.00 0.00 92 1010.2
20260905020615 60 337 1.0 1.0 0.00 0.00 0.00 91 1010.1
20260905020111 61 337 0.0 0.0 0.00 0.00 0.00 90 1010.0
20260905015609 61 337 0.0 0.0 0.00 0.00 0.00 90 1010.1
20260905015104 61 337 0.0 1.0 0.00 0.00 0.00 89 1010.1
20260905014557 61 335 0.0 0.0 0.00 0.00 0.00 89 1010.1
20260905014053 61 334 0.0 0.0 0.00 0.00 0.00 89 1010.2
20260905013549 61 335 1.0 1.0 0.00 0.00 0.00 88 1010.1
20260905013045 61 338 1.0 1.0 0.00 0.00 0.00 87 1010.0
20260905012544 62 343 1.0 1.0 0.00 0.00 0.00 88 1010.0
20260905012042 62 345 0.0 1.0 0.00 0.00 0.00 88 1010.3
20260905011537 62 332 2.0 2.0 0.00 0.00 0.00 87 1010.4
20260905011033 62 335 0.0 0.0 0.00 0.00 0.00 86 1010.1
20260905010527 62 338 1.0 1.0 0.00 0.00 0.00 86 1010.1
20260905010024 62 347 1.0 2.0 0.00 0.00 0.00 85 1010.3
20260905005519 62 340 1.0 1.0 0.00 0.00 0.00 86 1010.3
20260905005015 62 336 1.0 1.0 0.00 0.00 0.00 87 1010.3
20260905004514 62 348 1.0 1.0 0.00 0.00 0.00 87 1010.2
20260905004009 62 334 2.0 2.0 0.00 0.00 0.00 87 1010.0
20260905003505 63 321 3.0 3.0 0.00 0.00 0.00 86 1010.2
20260905003001 62 342 1.0 1.0 0.00 0.00 0.00 86 1010.2
20260905002455 62 319 3.0 3.0 0.00 0.00 0.00 85 1010.1
20260905001949 63 324 3.0 3.0 0.00 0.00 0.00 84 1010.0
20260905001444 63 324 1.0 2.0 0.00 0.00 0.00 84 1010.1
20260905000939 64 338 2.0 2.0 0.00 0.00 0.00 83 1010.1
20260905000435 64 346 1.0 2.0 0.00 0.00 0.00 82 1010.3
20260904235930 65 329 0.0 0.0 0.00 0.00 0.00 80 1009.9
20260904235426 66 315 0.0 1.0 0.00 0.00 0.00 79 1010.0
20260904234925 65 327 2.0 2.0 0.00 0.00 0.00 79 1010.0
20260904234420 65 321 2.0 2.0 0.00 0.00 0.00 79 1010.0
20260904233916 65 327 1.0 2.0 0.00 0.00 0.00 80 1009.9
20260904233411 64 344 2.0 2.0 0.00 0.00 0.00 82 1010.1
20260904232908 64 341 0.0 0.0 0.00 0.00 0.00 84 1010.0
20260904232404 64 344 2.0 2.0 0.00 0.00 0.00 84 1009.9
20260904231900 64 331 2.0 2.0 0.00 0.00 0.00 82 1010.0
20260904231354 64 334 2.0 2.0 0.00 0.00 0.00 81 1009.9
20260904230849 64 334 0.0 0.0 0.00 0.00 0.00 81 1010.0
20260904230348 64 328 2.0 2.0 0.00 0.00 0.00 81 1010.0
20260904225844 64 331 2.0 2.0 0.00 0.00 0.00 81 1009.9
20260904225341 64 350 3.0 5.0 0.00 0.00 0.00 81 1009.8
20260904224836 65 328 3.0 3.0 0.00 0.00 0.00 79 1009.9
20260904224331 66 341 3.0 5.0 0.00 0.00 0.00 77 1010.1
20260904223831 69 318 4.0 5.0 0.00 0.00 0.00 71 1009.8
20260904223325 70 350 0.0 1.0 0.00 0.00 0.00 62 1009.8
20260904222822 69 341 0.0 0.0 0.00 0.00 0.00 68 1009.8
20260904222322 68 10 1.0 1.0 0.00 0.00 0.00 68 1009.9
20260904221822 67 18 0.0 1.0 0.00 0.00 0.00 68 1009.8
20260904221322 68 10 1.0 1.0 0.00 0.00 0.00 69 1009.9
20260904220817 67 4 0.0 0.0 0.00 0.00 0.00 69 1009.8
20260904220317 69 343 2.0 2.0 0.00 0.00 0.00 67 1009.9
20260904215812 68 26 0.0 0.0 0.00 0.00 0.00 69 1009.9
20260904215307 67 358 0.0 1.0 0.00 0.00 0.00 72 1009.8
20260904214803 67 340 1.0 1.0 0.00 0.00 0.00 71 1009.9
20260904214258 67 344 1.0 1.0 0.00 0.00 0.00 72 1009.8
20260904213756 67 354 0.0 0.0 0.00 0.00 0.00 70 1009.9
20260904213252 66 333 2.0 3.0 0.00 0.00 0.00 70 1009.7
20260904212748 67 311 0.0 0.0 0.00 0.00 0.00 71 1009.6
20260904212248 67 343 1.0 1.0 0.00 0.00 0.00 70 1009.7
20260904211743 68 322 0.0 1.0 0.00 0.00 0.00 69 1009.6
20260904211238 68 336 0.0 0.0 0.00 0.00 0.00 68 1009.5
20260904210733 67 269 1.0 1.0 0.00 0.00 0.00 73 1009.6
20260904210227 68 323 2.0 2.0 0.00 0.00 0.00 69 1009.6
20260904205724 68 312 2.0 2.0 0.00 0.00 0.00 68 1009.6
20260904205219 69 276 3.0 3.0 0.00 0.00 0.00 67 1009.7
20260904204716 68 347 0.0 0.0 0.00 0.00 0.00 67 1009.7
20260904204212 69 266 1.0 2.0 0.00 0.00 0.00 65 1009.6
20260904203707 69 331 0.0 1.0 0.00 0.00 0.00 63 1009.5
20260904203158 69 321 3.0 5.0 0.00 0.00 0.00 67 1009.5
20260904202653 69 252 1.0 2.0 0.00 0.00 0.00 64 1009.4
20260904202149 68 12 0.0 0.0 0.00 0.00 0.00 66 1009.4
20260904201644 67 289 0.0 0.0 0.00 0.00 0.00 69 1009.8
20260904201139 67 18 0.0 0.0 0.00 0.00 0.00 74 1009.6
20260904200638 67 43 0.0 0.0 0.00 0.00 0.00 71 1009.8
20260904200134 66 348 1.0 2.0 0.00 0.00 0.00 71 1009.6
20260904195632 66 10 0.0 0.0 0.00 0.00 0.00 70 1009.5
20260904195126 65 358 1.0 1.0 0.00 0.00 0.00 73 1009.7
20260904194625 65 318 0.0 1.0 0.00 0.00 0.00 72 1009.6
20260904194120 66 27 0.0 0.0 0.00 0.00 0.00 72 1010.1
20260904193615 65 19 0.0 0.0 0.00 0.00 0.00 73 1009.8
20260904193112 66 317 1.0 2.0 0.00 0.00 0.00 75 1009.9
20260904192611 64 13 0.0 1.0 0.00 0.00 0.00 75 1009.9
20260904192107 65 41 1.0 2.0 0.00 0.00 0.00 74 1009.8
20260904191604 66 30 1.0 1.0 0.00 0.00 0.00 73 1009.9
20260904191100 66 70 1.0 2.0 0.00 0.00 0.00 75 1009.8
20260904190555 64 329 1.0 1.0 0.00 0.00 0.00 74 1009.9
20260904190051 65 282 2.0 2.0 0.00 0.00 0.00 74 1010.1
20260904185548 64 293 0.0 1.0 0.00 0.00 0.00 74 1010.0
20260904185042 64 324 0.0 0.0 0.00 0.00 0.00 76 1009.9
20260904184536 63 37 0.0 0.0 0.00 0.00 0.00 75 1010.1
20260904184026 63 19 0.0 0.0 0.00 0.00 0.00 81 1010.0
20260904183521 63 350 0.0 0.0 0.00 0.00 0.00 74 1009.8
20260904183016 63 15 0.0 0.0 0.00 0.00 0.00 74 1009.9
20260904182512 63 354 0.0 0.0 0.00 0.00 0.00 74 1009.9
20260904182012 63 343 0.0 0.0 0.00 0.00 0.00 80 1009.9
20260904181508 63 344 0.0 0.0 0.00 0.00 0.00 76 1010.0
20260904181002 62 9 0.0 0.0 0.00 0.00 0.00 83 1009.6
20260904180502 63 9 0.0 0.0 0.00 0.00 0.00 77 1009.9
20260904175956 62 41 0.0 0.0 0.00 0.00 0.00 82 1009.8
20260904175455 62 8 0.0 0.0 0.00 0.00 0.00 77 1009.9
20260904174950 62 15 0.0 0.0 0.00 0.00 0.00 81 1009.8
20260904174445 61 15 0.0 0.0 0.00 0.00 0.00 83 1010.1
20260904173942 61 24 0.0 0.0 0.00 0.00 0.00 77 1009.8
20260904173442 62 18 0.0 0.0 0.00 0.00 0.00 76 1009.8
20260904172937 61 16 0.0 0.0 0.00 0.00 0.00 82 1009.7
20260904172432 61 313 0.0 0.0 0.00 0.00 0.00 78 1009.5
20260904171926 60 298 1.0 2.0 0.00 0.00 0.00 78 1009.5
20260904171422 60 20 0.0 0.0 0.00 0.00 0.00 87 1009.4
20260904170918 60 346 0.0 1.0 0.00 0.00 0.00 91 1009.5
20260904170413 60 14 0.0 0.0 0.00 0.00 0.00 92 1009.4
20260904165908 60 345 0.0 0.0 0.00 0.00 0.00 92 1009.2
20260904165407 59 344 0.0 0.0 0.00 0.00 0.00 92 1008.9
20260904164907 59 343 0.0 0.0 0.00 0.00 0.00 93 1009.1
20260904164407 59 345 0.0 0.0 0.00 0.00 0.00 95 1008.7
20260904163903 58 343 0.0 0.0 0.00 0.00 0.00 94 1008.7
20260904163403 57 6 0.0 0.0 0.00 0.00 0.00 95 1008.9
20260904162902 57 6 0.0 0.0 0.00 0.00 0.00 96 1009.1
20260904162357 57 4 0.0 0.0 0.00 0.00 0.00 96 1008.7
20260904161853 56 5 0.0 0.0 0.00 0.00 0.00 96 1008.7
20260904161348 56 1 0.0 0.0 0.00 0.00 0.00 97 1008.8
20260904160844 56 18 0.0 0.0 0.00 0.00 0.00 97 1008.6
20260904160338 56 19 0.0 0.0 0.00 0.00 0.00 98 1008.7
20260904155833 55 23 0.0 0.0 0.00 0.00 0.00 98 1008.6
20260904155328 55 34 0.0 0.0 0.00 0.00 0.00 98 1008.7
20260904154827 55 24 0.0 0.0 0.00 0.00 0.00 98 1008.7
20260904154321 55 352 0.0 0.0 0.00 0.00 0.00 98 1008.7
20260904153817 54 25 0.0 0.0 0.00 0.00 0.00 99 1008.4
20260904153312 54 21 0.0 0.0 0.00 0.00 0.00 99 1008.5
20260904152809 54 15 0.0 0.0 0.00 0.00 0.00 99 1008.8
20260904152306 53 31 0.0 0.0 0.00 0.00 0.00 99 1008.6
20260904151758 53 16 0.0 0.0 0.00 0.00 0.00 99 1008.4
20260904151257 53 35 0.0 0.0 0.00 0.00 0.00 99 1008.6
20260904150754 53 27 0.0 0.0 0.00 0.00 0.00 99 1008.5
20260904150248 53 15 0.0 0.0 0.00 0.00 0.00 99 1008.4
20260904145746 52 18 0.0 0.0 0.00 0.00 0.00 99 1008.5
20260904145242 52 39 0.0 0.0 0.00 0.00 0.00 99 1008.3
20260904144738 52 29 0.0 0.0 0.00 0.00 0.00 99 1008.3
20260904144233 52 19 0.0 0.0 0.00 0.00 0.00 99 1008.3
20260904143729 52 42 0.0 0.0 0.00 0.00 0.00 99 1008.3
20260904143226 52 31 0.0 0.0 0.00 0.00 0.00 99 1008.1
20260904142721 52 32 0.0 0.0 0.00 0.00 0.00 99 1008.0
20260904142217 51 34 0.0 0.0 0.00 0.00 0.00 99 1008.3
20260904141717 51 27 0.0 0.0 0.00 0.00 0.00 99 1007.9
20260904141213 51 19 0.0 0.0 0.00 0.00 0.00 99 1007.7
20260904140708 51 19 0.0 0.0 0.00 0.00 0.00 99 1007.9
20260904140203 51 41 0.0 0.0 0.00 0.00 0.00 99 1007.7
20260904135702 52 33 0.0 0.0 0.00 0.00 0.00 99 1007.7
20260904135157 52 30 0.0 0.0 0.00 0.00 0.00 99 1007.6
20260904134653 52 23 0.0 0.0 0.00 0.00 0.00 99 1007.6
20260904134152 52 19 0.0 0.0 0.00 0.00 0.00 99 1007.4
20260904133648 52 6 0.0 0.0 0.00 0.00 0.00 99 1007.3
20260904133143 52 12 0.0 0.0 0.00 0.00 0.00 99 1007.4
20260904132643 51 41 0.0 0.0 0.00 0.00 0.00 99 1007.2
20260904132138 51 33 0.0 0.0 0.00 0.00 0.00 99 1007.5
20260904131637 51 16 0.0 0.0 0.00 0.00 0.00 99 1007.3
20260904131133 51 25 0.0 0.0 0.00 0.00 0.00 99 1007.3
20260904130632 52 18 0.0 0.0 0.00 0.00 0.00 99 1007.5
20260904130127 52 20 0.0 0.0 0.00 0.00 0.00 99 1007.6
20260904125624 52 17 0.0 0.0 0.00 0.00 0.00 99 1007.5
20260904125119 52 26 0.0 0.0 0.00 0.00 0.00 99 1007.4
20260904124614 52 33 0.0 0.0 0.00 0.00 0.00 99 1007.3
20260904124109 52 40 0.0 0.0 0.00 0.00 0.00 99 1007.3
20260904123604 52 15 0.0 0.0 0.00 0.00 0.00 99 1007.5
20260904123059 52 31 0.0 0.0 0.00 0.00 0.00 99 1007.5
20260904122554 52 41 0.0 0.0 0.00 0.00 0.00 99 1007.5
20260904122049 52 39 0.0 1.0 0.00 0.00 0.00 99 1007.6
20260904121544 52 16 0.0 0.0 0.00 0.00 0.00 99 1007.5
20260904121040 52 31 0.0 0.0 0.00 0.00 0.00 99 1007.6
20260904120536 52 344 0.0 0.0 0.00 0.00 0.00 99 1007.8
20260904120031 52 22 0.0 0.0 0.00 0.00 0.00 99 1007.3
20260904115527 51 37 0.0 0.0 0.00 0.00 0.00 99 1007.4
20260904115027 52 24 0.0 0.0 0.00 0.00 0.00 99 1007.5
20260904114521 51 29 0.0 0.0 0.00 0.00 0.00 99 1007.5
20260904114016 51 26 0.0 0.0 0.00 0.00 0.00 99 1007.5
20260904113516 51 35 0.0 0.0 0.00 0.00 0.00 99 1007.5
20260904113010 51 14 0.0 0.0 0.00 0.00 0.00 99 1007.5
20260904112505 51 33 0.0 0.0 0.00 0.00 0.00 99 1007.5
20260904112001 51 29 0.0 0.0 0.00 0.00 0.00 99 1007.6
20260904111456 51 16 0.0 0.0 0.00 0.00 0.00 99 1007.5
20260904110952 51 8 0.0 0.0 0.00 0.00 0.00 99 1007.4
20260904110451 51 19 0.0 0.0 0.00 0.00 0.00 99 1007.5
20260904105946 51 6 0.0 0.0 0.00 0.00 0.00 99 1007.2
20260904105441 51 29 0.0 0.0 0.00 0.00 0.00 99 1007.2
20260904104936 51 27 0.0 0.0 0.00 0.00 0.00 99 1007.4
20260904104436 51 18 0.0 0.0 0.00 0.00 0.00 99 1007.4
20260904103933 51 31 0.0 0.0 0.00 0.00 0.00 99 1007.4
20260904103428 51 29 0.0 0.0 0.00 0.00 0.00 99 1007.2
20260904102924 51 38 0.0 0.0 0.00 0.00 0.00 99 1007.2
20260904102420 52 24 0.0 0.0 0.00 0.00 0.00 99 1007.2
20260904101915 52 21 0.0 0.0 0.00 0.00 0.00 99 1007.0
20260904101412 52 19 0.0 0.0 0.00 0.00 0.00 99 1007.1
20260904100908 52 36 0.0 0.0 0.00 0.00 0.00 99 1007.1
20260904100403 52 17 0.0 0.0 0.00 0.00 0.00 99 1007.1
20260904095902 52 28 0.0 0.0 0.00 0.00 0.00 99 1007.1
20260904095357 52 8 0.0 0.0 0.00 0.00 0.00 99 1007.1
20260904094853 52 32 0.0 0.0 0.00 0.00 0.00 99 1007.2
20260904094348 52 27 0.0 0.0 0.00 0.00 0.00 99 1007.1
20260904093844 52 41 0.0 0.0 0.00 0.00 0.00 99 1007.1
20260904093344 53 39 0.0 0.0 0.00 0.00 0.00 99 1007.2
20260904092839 53 29 0.0 0.0 0.00 0.00 0.00 99 1007.3
20260904092336 53 28 0.0 0.0 0.00 0.00 0.00 99 1007.1
20260904091831 53 25 0.0 0.0 0.00 0.00 0.00 99 1007.3
20260904091327 53 24 0.0 0.0 0.00 0.00 0.00 99 1007.4
20260904090821 53 341 0.0 0.0 0.00 0.00 0.00 99 1007.3
20260904090318 53 22 0.0 0.0 0.00 0.00 0.00 99 1007.2
20260904085813 53 17 0.0 0.0 0.00 0.00 0.00 99 1007.3
20260904085308 53 14 0.0 0.0 0.00 0.00 0.00 99 1007.4
20260904084802 53 26 0.0 0.0 0.00 0.00 0.00 99 1007.4
20260904084258 53 29 0.0 0.0 0.00 0.00 0.00 99 1007.5
20260904083754 53 36 0.0 0.0 0.00 0.00 0.00 98 1007.6
20260904083250 54 54 0.0 0.0 0.00 0.00 0.00 99 1007.6
20260904082745 54 14 0.0 0.0 0.00 0.00 0.00 98 1007.6
20260904082239 54 11 0.0 0.0 0.00 0.00 0.00 98 1007.6